STARLINK-34253 (64685 NORAD) Tracking and Keplerian Element Data

This shows tracking and keplerian element data for the satellite.

Feedback or suggestion? Click here.




ElementValue
Catalog64685
NameSTARLINK-34253
Epoch Orbit2803
Epoch Day353.68976931
Epoch Year2025
RAAN138.7768
Inclination53.1578
Eccentricity9.81E-05
Argument of Perigee85.4433
Mean Anonmoly274.668
Mean Motion15.30193942
Decay Rate0.00030779
L11 64685U 25139X 25353.68976931 .00030779 00000+0 10472-2 0 9997
L22 64685 53.1578 138.7768 0000981 85.4433 274.6680 15.30193942 28038



Live tracking and technical data element details for STARLINK-34253 (NORAD 64685). STARLINK-34253 can be tracked NOW for your location showing map with azimuth and elevation plus other details from your city location.







IsCatalogInMostPopularTable: catalog: 64685, numindb: 4
Update: records affected: 1



GetName: 64685 STARLINK-34253

Hit Count: updated at: Mon, 09 Feb 2026 08:37:44 GMT